Location: Yecla
(38.6122°N, 1.1101°W)
Time: 03:25:45
(UTC+02:00)

ISS - Pass Details

Date: 25 May 2019
Orbit: 408 x 418 km, 51.6° (Epoch: 18 June)

Event Time Altitude Azimuth Distance (km) Brightness Sun altitude
Rises 21:42:55 0° 279° (W) 2,341 1.5 -5.1°
Reaches altitude 10° 21:45:44 10° 305° (NW) 1,485 0.9 -5.6°
Maximum altitude 21:47:40 15° 341° (NNW) 1,245 -0.5 -5.9°
Drops below altitude 10° 21:49:37 10° 16° (NNE) 1,491 -0.7 -6.2°
Sets 21:52:27 0° 42° (NE) 2,359 0.0 -6.7°
